Overview Statistics Trail Chart Weather Telemetry Raw packets
 

This is the latest recevied weather packets stored in our database for station/object W8KVG. If no packets are shown the sender has not sent any weather packets the latest 10 day(s).

<< 29 30 31 32 33 34 35 >>
Time Temp. Humidity Pressure Rain* Wind** Luminosity Snow
1777755998 6.67° C 72% 1014.8 hPa 0 mm - 175 W/m² -
1777755672 6.67° C 71% 1014.6 hPa 0 mm - 336 W/m² -
1777755369 6.11° C 73% 1014.5 hPa 0 mm - 210 W/m² -
1777755066 6.67° C 74% 1014.6 hPa 0 mm - 98 W/m² -
1777754763 6.67° C 73% 1014.6 hPa 0 mm - 107 W/m² -
1777754460 7.22° C 73% 1014.7 hPa 0 mm - 242 W/m² -
1777754157 6.11° C 74% 1014.8 hPa 0 mm - 564 W/m² -
1777753855 6.11° C 78% 1014.8 hPa 0 mm - 204 W/m² -
1777753550 5.56° C 78% 1015 hPa 0 mm - 191 W/m² -
1777753248 5.56° C 78% 1014.8 hPa 0 mm - 165 W/m² -
1777752943 5.56° C 79% 1014.6 hPa 0 mm - 131 W/m² -
1777752635 5.56° C 81% 1014.6 hPa 0 mm - 89 W/m² -
1777752331 5.56° C 81% 1015 hPa 0 mm - 89 W/m² -
1777752029 5.56° C 81% 1014.8 hPa 0 mm - 86 W/m² -
1777751726 5.56° C 81% 1014.8 hPa 0 mm - 96 W/m² -
1777751422 5.56° C 79% 1014.7 hPa 0 mm - 76 W/m² -
1777751119 5.56° C 80% 1014.8 hPa 0 mm - 81 W/m² -
1777750815 5.56° C 79% 1015 hPa 0 mm - 51 W/m² -
1777750512 6.11° C 80% 1014.9 hPa 0 mm - 35 W/m² -
1777750203 6.11° C 78% 1014.9 hPa 0 mm - 75 W/m² -
1777749899 6.11° C 79% 1014.9 hPa 0 mm - 90 W/m² -
1777749596 5.56° C 79% 1014.9 hPa 0 mm - 75 W/m² -
1777749293 5.56° C 80% 1014.8 hPa 0 mm - 71 W/m² -
1777748990 5.56° C 77% 1014.9 hPa 0 mm - 54 W/m² -
1777748682 5.56° C 78% 1015.1 hPa 0 mm - 37 W/m² -

* Rain latest hour (hover to see other rain measurements)
** Current wind speed in m/s (hover to see current wind gust speed)